Printer-friendly version

IAU Minor Planet Center

Minor Planet Center

MPEC 2004-F53 : 2004 FK5

The following Minor Planet Electronic Circular may be linked-to from your own Web pages, but must not otherwise be redistributed electronically.


Read MPEC 2004-F52 Read MPEC 2004-F54


M.P.E.C. 2004-F53                                Issued 2004 Mar. 24, 00:46 UT

     The Minor Planet Electronic Circulars contain information on unusual
         minor planets and routine data on comets.  They are published
   on behalf of Commission 20 of the International Astronomical Union by the
          Minor Planet Center, Smithsonian Astrophysical Observatory,
                          Cambridge, MA 02138, U.S.A.

         Supported in part by the Steven and Michele Kirsch Foundation
             Prepared using the Tamkin Foundation Computer Network

                              MPC@CFA.HARVARD.EDU
          URL http://cfa-www.harvard.edu/iau/mpc.html  ISSN 1523-6714

                                   2004 FK5

Observations:
     K04F05K* C2004 03 22.29410 10 18 31.66 +16 43 42.4          19.7   EF053704
     K04F05K  C2004 03 22.30571 10 18 58.37 +16 35 52.4          19.7   EF053704
     K04F05K  C2004 03 22.32919 10 19 52.78 +16 19 56.0          20.0   EF053704
     K04F05K  C2004 03 22.34075 10 20 19.76 +16 12 03.1          19.5   EF053704
     K04F05K  C2004 03 23.22448 10 58 40.80 +05 18 27.7          19.3   EF053704
     K04F05K  C2004 03 23.22464 10 58 41.18 +05 18 20.3          19.4   EF053704
     K04F05K  C2004 03 23.23504 10 59 06.56 +05 10 06.0          19.6   EF053704
     K04F05K  C2004 03 23.23520 10 59 06.96 +05 09 58.9          19.3   EF053704
     K04F05K  C2004 03 23.24561 10 59 32.36 +05 01 44.6          19.6   EF053704
     K04F05K  C2004 03 23.24577 10 59 32.75 +05 01 37.2          19.5   EF053704
     K04F05K  C2004 03 23.25631 10 59 58.43 +04 53 15.6          19.6   EF053704
     K04F05K  C2004 03 23.25647 10 59 58.90 +04 53 07.4          19.4   EF053704
     K04F05K  C2004 03 23.26714 11 00 24.92 +04 44 38.7          20.0   EF053704

Observer details:
704 Lincoln Laboratory ETS, New Mexico.  Observers M. Blythe, F. Shelly,
    M. Bezpalko, R. Huber, L. Manguso, D. Torres, R. Kracke, M. McCleary,
    H. Stange, A. Milner.  Measurers J. Stuart, R. Sayer, J. Evans, J. Kommers.
    1.0-m f/2.15 reflector + CCD.

Orbital elements:
2004 FK5
Epoch 2004 July 14.0 TT = JDT 2453200.5                 MPC
M  34.54736              (2000.0)            P               Q
n   0.29223705     Peri.  173.61655     -0.99756492     -0.06962745
a   2.2489469      Node     2.40194     +0.05897927     -0.87302838
e   0.5514930      Incl.    5.51864     +0.03722461     -0.48267325
P   3.37           H   26.8           G   0.15           U   7
Residuals in seconds of arc
040322 704  0.2-  1.0+    040323 704  0.0   0.8+    040323 704  0.7-  0.1+
040322 704  0.4-  0.4+    040323 704  0.1-  0.3-    040323 704  0.5+  0.5-
040322 704  0.0   0.8-    040323 704  0.0   0.2+    040323 704  0.1-  1.2-
040322 704  0.3+  0.6-    040323 704  0.0   0.3+
040323 704  0.1+  0.6+    040323 704  0.0   0.5+

Ephemeris:
2004 FK5                 a,e,i = 2.25, 0.55, 6                   q = 1.0087
Date    TT    R. A. (2000) Decl.     Delta      r     Elong.  Phase     V
2004 03 16    07 36.64   +44 48.0    0.037    1.009   110.8    67.2    22.0
2004 03 17    07 51.39   +43 24.4    0.033    1.008   112.9    65.4    21.7
2004 03 18    08 09.27   +41 27.7    0.029    1.008   115.8    62.7    21.4
2004 03 19    08 31.03   +38 40.8    0.026    1.009   119.8    59.0    21.0
2004 03 20    08 57.51   +34 36.6    0.022    1.009   125.5    53.5    20.5
2004 03 21    09 29.38   +28 36.1    0.019    1.009   133.4    45.8    20.0
2004 03 22    10 06.77   +19 54.9    0.017    1.010   144.3    35.2    19.4
2004 03 23    10 48.73   +08 18.6    0.015    1.011   157.8    21.9    18.8
2004 03 24    11 32.89   -04 56.5    0.015    1.012   169.3    10.5    18.4
2004 03 25    12 16.09   -17 15.1    0.016    1.013   164.6    15.2    18.7
2004 03 26    12 55.52   -26 48.7    0.018    1.014   154.0    25.5    19.3
2004 03 27    13 29.64   -33 29.9    0.021    1.015   145.6    33.8    19.9
2004 03 28    13 58.20   -38 00.3    0.025    1.017   139.4    39.7    20.4
2004 03 29    14 21.72   -41 02.5    0.028    1.019   135.0    43.9    20.8
2004 03 30    14 41.00   -43 07.5    0.032    1.020   131.8    46.9    21.2
2004 03 31    14 56.84   -44 35.1    0.036    1.022   129.5    48.9    21.5
2004 04 01    15 09.93   -45 38.0    0.040    1.025   127.9    50.3    21.8
2004 04 02    15 20.83   -46 24.0    0.045    1.027   126.8    51.2    22.0
2004 04 03    15 29.97   -46 58.2    0.049    1.029   126.0    51.8    22.2
2004 04 04    15 37.69   -47 24.1    0.053    1.032   125.5    52.1    22.4
2004 04 05    15 44.25   -47 43.9    0.057    1.035   125.3    52.1    22.6

Kyle E. Smalley              (C) Copyright 2004 MPC           M.P.E.C. 2004-F53

Read MPEC 2004-F52 Read MPEC 2004-F54


Our Web policy. Index to the CBAT/MPC/ICQ pages.


Valid HTML 4.01!